GW7227 Weather Reports


time (UTC)temp
F
wind
direction
speed
knots
gust
knots
rain 1hr
in
rain 24hr
in
rain mn
in
humidity
%
barometer
mb
20260507153603 71 338 5.2 5.2 0.00 0.00 0.00 78 1017.2
20260507153059 71 353 0.9 3.5 0.00 0.00 0.00 77 1017.0
20260507152555 71 310 2.6 4.3 0.00 0.00 0.00 76 1017.1
20260507152052 71 332 2.6 4.3 0.00 0.00 0.00 76 1017.0
20260507151548 71 24 1.7 3.5 0.00 0.00 0.00 76 1016.9
20260507151045 71 319 1.7 3.5 0.00 0.00 0.00 76 1016.9
20260507150543 71 22 0.9 2.6 0.00 0.00 0.00 76 1016.9
20260507150039 71 354 0.9 1.7 0.00 0.00 0.00 75 1016.8
20260507145540 71 334 1.7 2.6 0.00 0.00 0.00 74 1016.9
20260507145038 71 35 1.7 3.5 0.00 0.00 0.00 74 1016.8
20260507144534 71 62 2.6 3.5 0.00 0.00 0.00 74 1016.7
20260507144032 71 55 2.6 2.6 0.00 0.00 0.00 74 1016.5
20260507143529 71 63 1.7 1.7 0.00 0.00 0.00 74 1016.7
20260507143026 71 348 0.9 1.7 0.00 0.00 0.00 74 1016.5
20260507142522 71 353 1.7 1.7 0.00 0.00 0.00 74 1016.7
20260507142019 71 333 1.7 1.7 0.00 0.00 0.00 74 1016.8
20260507141515 71 332 1.7 2.6 0.00 0.00 0.00 74 1016.8
20260507141012 71 358 0.9 2.6 0.00 0.00 0.00 75 1016.6
20260507140508 71 304 1.7 3.5 0.00 0.00 0.00 75 1016.9
20260507140006 71 338 1.7 2.6 0.00 0.00 0.00 75 1016.8
20260507135502 71 330 1.7 3.5 0.00 0.00 0.00 75 1016.9
20260507134959 71 318 1.7 3.5 0.00 0.00 0.00 75 1016.9
20260507134456 71 342 0.9 4.3 0.00 0.00 0.00 75 1016.8
20260507133952 71 339 1.7 1.7 0.00 0.00 0.00 74 1016.8
20260507133448 72 334 1.7 4.3 0.00 0.00 0.00 74 1016.8
20260507132947 72 332 1.7 2.6 0.00 0.00 0.00 74 1016.8
20260507132442 72 350 2.6 3.5 0.00 0.00 0.00 74 1016.9
20260507131939 72 359 1.7 3.5 0.00 0.00 0.00 75 1017.1
20260507131436 72 343 1.7 4.3 0.00 0.00 0.00 75 1016.9
20260507130933 71 330 1.7 3.5 0.00 0.00 0.00 75 1016.9
20260507130431 71 11 1.7 4.3 0.00 0.00 0.00 76 1016.9
20260507125929 71 333 2.6 3.5 0.00 0.00 0.00 76 1017.2
20260507125426 71 334 2.6 4.3 0.00 0.00 0.00 76 1017.1
20260507124924 71 316 3.5 5.2 0.00 0.00 0.00 76 1017.2
20260507124419 71 343 1.7 2.6 0.00 0.00 0.00 76 1017.1
20260507123918 71 325 1.7 3.5 0.00 0.00 0.00 76 1017.4
20260507123415 71 357 0.0 2.6 0.00 0.00 0.00 76 1017.3
20260507122912 71 329 3.5 5.2 0.00 0.00 0.00 76 1017.3
20260507122407 71 324 1.7 2.6 0.00 0.00 0.00 77 1017.3
20260507121903 71 315 2.6 3.5 0.00 0.00 0.00 76 1017.4
20260507121359 71 286 3.5 7.8 0.00 0.00 0.00 76 1017.5
20260507120855 71 333 3.5 4.3 0.00 0.00 0.00 77 1017.3
20260507120352 71 1 1.7 3.5 0.00 0.00 0.00 77 1017.5
20260507115848 71 335 1.7 3.5 0.00 0.00 0.00 76 1017.4
20260507115344 71 341 4.3 5.2 0.00 0.00 0.00 77 1017.7
20260507114840 71 328 2.6 4.3 0.00 0.00 0.00 77 1017.8
20260507114337 71 298 2.6 5.2 0.00 0.00 0.00 76 1017.9
20260507113834 71 322 2.6 7.0 0.00 0.00 0.00 77 1017.8
20260507113332 71 326 1.7 6.1 0.00 0.00 0.00 78 1017.9
20260507112829 71 306 3.5 5.2 0.00 0.00 0.00 79 1017.9
20260507112326 71 323 3.5 5.2 0.00 0.00 0.00 79 1018.1
20260507111824 71 323 7.8 7.8 0.00 0.00 0.00 79 1018.0
20260507111320 71 309 3.5 7.8 0.00 0.00 0.00 79 1018.0
20260507110816 71 303 1.7 4.3 0.00 0.00 0.00 79 1017.9
20260507110313 71 348 3.5 6.1 0.00 0.00 0.00 78 1018.1
20260507105810 71 314 2.6 5.2 0.00 0.00 0.00 78 1018.0
20260507105307 71 323 5.2 5.2 0.00 0.00 0.00 78 1018.1
20260507104803 71 313 1.7 8.7 0.00 0.00 0.00 79 1018.3
20260507104259 71 319 2.6 7.0 0.00 0.00 0.00 79 1018.1
20260507103756 71 26 3.5 5.2 0.00 0.00 0.00 79 1018.2
20260507103252 71 334 2.6 4.3 0.00 0.00 0.00 79 1018.3
20260507102749 71 340 1.7 7.8 0.00 0.00 0.00 78 1018.2
20260507102245 71 62 0.9 4.3 0.00 0.00 0.00 77 1018.1
20260507101741 71 303 3.5 9.6 0.00 0.00 0.00 76 1018.4
20260507101236 71 316 2.6 5.2 0.00 0.00 0.00 75 1018.4
20260507100734 71 290 2.6 4.3 0.00 0.00 0.00 76 1018.3
20260507100232 71 344 2.6 6.1 0.00 0.00 0.00 76 1018.6
20260507095730 71 300 3.5 7.8 0.00 0.00 0.00 76 1018.5
20260507095226 71 315 7.0 7.8 0.00 0.00 0.00 76 1018.4
20260507094723 71 316 5.2 9.6 0.00 0.00 0.00 74 1018.4
20260507094220 71 81 2.6 9.6 0.00 0.00 0.00 72 1018.4
20260507093717 71 313 4.3 5.2 0.00 0.00 0.00 74 1018.4
20260507093216 71 297 4.3 5.2 0.00 0.00 0.00 75 1018.5
20260507092713 71 303 2.6 5.2 0.00 0.00 0.00 75 1018.4
20260507092209 71 321 2.6 9.6 0.00 0.00 0.00 74 1018.9
20260507091705 71 339 1.7 7.8 0.00 0.00 0.00 73 1018.8
20260507091202 71 329 5.2 8.7 0.00 0.00 0.00 74 1018.8
20260507090657 71 313 2.6 6.1 0.00 0.00 0.00 75 1018.7
20260507090154 71 277 2.6 5.2 0.00 0.00 0.00 75 1018.7
20260507085651 71 300 5.2 7.0 0.00 0.00 0.00 75 1018.9
20260507085148 71 336 3.5 7.8 0.00 0.00 0.00 73 1018.8
20260507084645 71 337 5.2 7.0 0.00 0.00 0.00 73 1018.9
20260507084142 71 312 4.3 5.2 0.00 0.00 0.00 74 1018.9
20260507083638 71 315 4.3 9.6 0.00 0.00 0.00 75 1018.8
20260507083135 71 320 3.5 6.1 0.00 0.00 0.00 75 1018.7
20260507082631 71 333 2.6 7.8 0.00 0.00 0.00 76 1018.9
20260507082128 71 289 1.7 5.2 0.00 0.00 0.00 77 1018.7
20260507081625 71 281 2.6 7.0 0.00 0.00 0.00 76 1018.5
20260507081121 71 316 1.7 4.3 0.00 0.00 0.00 77 1018.7
20260507080617 71 307 3.5 6.1 0.00 0.00 0.00 77 1018.6
20260507080114 71 309 7.0 7.8 0.00 0.00 0.00 77 1018.5
20260507075614 71 335 5.2 6.1 0.00 0.00 0.00 77 1018.7
20260507075111 71 300 6.1 8.7 0.00 0.00 0.00 78 1018.8
20260507074608 71 314 7.8 9.6 0.00 0.00 0.00 78 1018.6
20260507074106 71 305 1.7 7.8 0.00 0.00 0.00 78 1018.6
20260507073602 71 346 3.5 7.8 0.00 0.00 0.00 79 1018.4
20260507073058 71 327 4.3 5.2 0.00 0.00 0.00 79 1018.4
20260507072556 71 308 5.2 7.8 0.00 0.00 0.00 80 1018.4
20260507072053 71 285 2.6 3.5 0.00 0.00 0.00 79 1018.4
20260507071550 71 329 1.7 6.1 0.00 0.00 0.00 79 1018.6
20260507071047 71 320 2.6 5.2 0.00 0.00 0.00 79 1018.4
20260507070544 71 326 3.5 10.4 0.00 0.00 0.00 79 1018.2
20260507070041 71 316 2.6 6.1 0.00 0.00 0.00 80 1018.2
20260507065537 71 328 4.3 5.2 0.00 0.00 0.00 79 1018.2
20260507065034 71 329 1.7 6.1 0.00 0.00 0.00 79 1018.3
20260507064532 71 309 5.2 8.7 0.00 0.00 0.00 78 1017.9
20260507064031 71 288 2.6 5.2 0.00 0.00 0.00 80 1017.9
20260507063527 71 285 1.7 6.1 0.00 0.00 0.00 80 1018.0
20260507063025 72 309 7.0 7.8 0.00 0.00 0.00 79 1017.8
20260507062521 72 301 2.6 5.2 0.00 0.00 0.00 78 1017.7
20260507062019 71 329 2.6 5.2 0.00 0.00 0.00 80 1017.5
20260507061516 72 316 1.7 6.1 0.00 0.00 0.00 80 1017.4
20260507061014 71 315 3.5 9.6 0.00 0.00 0.00 79 1017.5
20260507060512 71 338 4.3 5.2 0.00 0.00 0.00 79 1017.4
20260507060008 71 304 5.2 12.2 0.00 0.00 0.00 79 1017.4
20260507055503 72 302 3.5 8.7 0.00 0.00 0.00 78 1017.1
20260507055000 72 319 3.5 10.4 0.00 0.00 0.00 79 1017.1
20260507054456 72 316 3.5 8.7 0.00 0.00 0.00 79 1017.2
20260507053953 72 319 2.6 6.1 0.00 0.00 0.00 79 1017.1
20260507053451 72 303 3.5 8.7 0.00 0.00 0.00 79 1017.0
20260507052949 72 328 3.5 4.3 0.00 0.00 0.00 79 1017.1
20260507052447 72 314 3.5 5.2 0.00 0.00 0.00 80 1017.1
20260507051943 72 323 6.1 7.0 0.00 0.00 0.00 79 1016.7
20260507051441 72 307 4.3 6.1 0.00 0.00 0.00 79 1016.9
20260507050938 72 313 2.6 6.1 0.00 0.00 0.00 79 1016.8
20260507050434 72 40 3.5 6.1 0.00 0.00 0.00 79 1016.8
20260507045931 72 332 2.6 7.8 0.00 0.00 0.00 79 1016.8
20260507045428 71 322 3.5 7.8 0.00 0.00 0.00 79 1016.6
20260507044925 71 314 7.0 7.0 0.00 0.00 0.00 79 1016.7
20260507044422 72 302 4.3 7.0 0.00 0.00 0.00 80 1016.5
20260507043918 72 308 4.3 6.1 0.00 0.00 0.00 79 1016.6
20260507043414 72 290 6.1 9.6 0.00 0.00 0.00 79 1016.5
20260507042910 72 331 3.5 7.0 0.00 0.00 0.00 79 1016.3
20260507042407 72 322 2.6 7.0 0.00 0.00 0.00 79 1016.3
20260507041903 72 324 2.6 5.2 0.00 0.00 0.00 79 1016.4
20260507041400 72 296 2.6 7.8 0.00 0.00 0.00 79 1016.3
20260507040857 72 305 2.6 7.0 0.00 0.00 0.00 80 1016.2
20260507040353 72 297 3.5 6.1 0.00 0.00 0.00 80 1016.3
20260507035849 72 31 1.7 5.2 0.00 0.00 0.00 80 1016.1
20260507035345 72 297 2.6 7.8 0.00 0.00 0.00 80 1016.2
20260507034842 72 292 1.7 7.8 0.00 0.00 0.00 80 1016.1
20260507034339 72 323 2.6 7.8 0.00 0.00 0.00 80 1016.0
20260507033837 73 289 4.3 7.8 0.00 0.00 0.00 79 1016.1
20260507033335 72 285 4.3 6.1 0.00 0.00 0.00 79 1016.0
20260507032832 73 317 4.3 7.0 0.00 0.00 0.00 79 1016.0
20260507032328 73 305 3.5 5.2 0.00 0.00 0.00 78 1015.7
20260507031824 73 38 2.6 4.3 0.00 0.00 0.00 77 1015.8
20260507031321 73 307 2.6 7.0 0.00 0.00 0.00 78 1015.8
20260507030817 73 313 4.3 9.6 0.00 0.00 0.00 78 1015.7
20260507030316 73 304 2.6 12.2 0.00 0.00 0.00 78 1015.6
20260507025812 74 319 3.5 7.0 0.00 0.00 0.00 77 1015.6
20260507025309 74 346 3.5 11.3 0.00 0.00 0.00 76 1015.7
20260507024807 74 315 4.3 7.0 0.00 0.00 0.00 76 1015.5
20260507024304 74 330 6.1 9.6 0.00 0.00 0.00 77 1015.7
20260507023800 74 319 5.2 7.8 0.00 0.00 0.00 77 1015.7
20260507023257 74 352 2.6 7.8 0.00 0.00 0.00 77 1015.8
20260507022754 74 323 5.2 7.0 0.00 0.00 0.00 76 1015.5
20260507022250 75 339 2.6 5.2 0.00 0.00 0.00 76 1015.8
20260507021747 75 302 5.2 5.2 0.00 0.00 0.00 76 1015.7
20260507021242 75 348 2.6 5.2 0.00 0.00 0.00 75 1015.7
20260507020741 75 291 5.2 7.0 0.00 0.00 0.00 75 1015.9
20260507020237 75 233 3.5 5.2 0.00 0.00 0.00 74 1015.9
20260507015734 75 325 1.7 6.1 0.00 0.00 0.00 75 1015.8
20260507015232 76 324 3.5 9.6 0.00 0.00 0.00 73 1016.0
20260507014728 77 8 2.6 3.5 0.00 0.00 0.00 72 1015.9
20260507014225 77 318 1.7 5.2 0.00 0.00 0.00 71 1015.9
20260507013721 79 322 3.5 4.3 0.00 0.00 0.00 69 1015.9
20260507013219 79 339 4.3 8.7 0.00 0.00 0.00 68 1015.6
20260507012716 78 77 3.5 6.1 0.00 0.00 0.00 70 1015.8
20260507012216 79 328 3.5 7.0 0.00 0.00 0.00 70 1015.6
20260507011714 80 319 4.3 5.2 0.00 0.00 0.00 68 1015.8
20260507011211 81 313 1.7 4.3 0.00 0.00 0.00 66 1015.7
20260507010710 80 289 1.7 3.5 0.00 0.00 0.00 69 1015.8
20260507010207 80 24 1.7 7.8 0.00 0.00 0.00 68 1015.9
20260507005705 79 329 4.3 4.3 0.00 0.00 0.00 69 1015.9
20260507005200 78 313 4.3 5.2 0.00 0.00 0.00 71 1016.1
20260507004657 77 284 2.6 6.1 0.00 0.00 0.00 71 1016.1
20260507004155 78 324 3.5 11.3 0.00 0.00 0.00 70 1016.2
20260507003651 78 310 1.7 4.3 0.00 0.00 0.00 72 1016.2
20260507003151 77 341 2.6 7.0 0.00 0.00 0.00 72 1016.3
20260507002648 77 305 3.5 4.3 0.00 0.00 0.00 71 1016.4
20260507002143 78 305 4.3 6.1 0.00 0.00 0.00 71 1016.3
20260507001641 77 330 2.6 4.3 0.00 0.00 0.00 73 1016.5
20260507001138 77 317 6.1 7.0 0.00 0.00 0.00 72 1016.4
20260507000634 77 327 3.5 4.3 0.00 0.00 0.00 72 1016.4
20260507000130 77 322 1.7 9.6 0.00 0.00 0.00 72 1016.6
20260506235627 77 306 2.6 8.7 0.00 0.00 0.00 72 1016.6
20260506235127 78 320 4.3 6.1 0.00 0.00 0.00 71 1016.7
20260506234625 78 3 1.7 5.2 0.00 0.00 0.00 69 1016.8
20260506234122 78 318 2.6 4.3 0.00 0.00 0.00 70 1016.6
20260506233619 79 309 6.1 7.8 0.00 0.00 0.00 69 1016.7
20260506233116 79 311 5.2 6.1 0.00 0.00 0.00 68 1016.9
20260506232612 79 320 1.7 4.3 0.00 0.00 0.00 68 1016.9
20260506232107 80 313 2.6 5.2 0.00 0.00 0.00 67 1016.9
20260506231605 79 317 2.6 10.4 0.00 0.00 0.00 68 1016.9
20260506231103 80 301 7.0 7.8 0.00 0.00 0.00 67 1016.8
20260506230559 80 355 0.9 6.1 0.00 0.00 0.00 67 1016.8
20260506230057 82 306 9.6 9.6 0.00 0.00 0.00 64 1016.6
20260506225553 82 317 4.3 6.1 0.00 0.00 0.00 65 1016.9
20260506225050 83 299 6.1 9.6 0.00 0.00 0.00 63 1016.9
20260506224547 82 94 1.7 4.3 0.00 0.00 0.00 63 1016.9
20260506224043 81 19 0.9 5.2 0.00 0.00 0.00 65 1016.8
20260506223539 82 244 2.6 4.3 0.00 0.00 0.00 63 1017.0
20260506223036 82 320 1.7 5.2 0.00 0.00 0.00 63 1017.0
20260506222533 82 292 2.6 3.5 0.00 0.00 0.00 66 1017.1
20260506222029 84 69 0.9 5.2 0.00 0.00 0.00 62 1017.0
20260506221527 83 308 1.7 4.3 0.00 0.00 0.00 63 1017.1
20260506221025 82 298 2.6 4.3 0.00 0.00 0.00 63 1017.3
20260506220520 83 322 1.7 6.1 0.00 0.00 0.00 64 1017.2
20260506220016 84 300 3.5 4.3 0.00 0.00 0.00 60 1017.3
20260506215513 83 347 1.7 3.5 0.00 0.00 0.00 61 1017.0
20260506215009 83 296 1.7 4.3 0.00 0.00 0.00 62 1017.4
20260506214506 83 268 0.9 5.2 0.00 0.00 0.00 64 1017.3
20260506214003 82 15 1.7 5.2 0.00 0.00 0.00 64 1017.3
20260506213501 82 310 0.9 3.5 0.00 0.00 0.00 63 1017.5
20260506212958 82 318 2.6 2.6 0.00 0.00 0.00 65 1017.5
20260506212454 81 321 3.5 4.3 0.00 0.00 0.00 65 1017.7
20260506211949 81 318 1.7 3.5 0.00 0.00 0.00 66 1017.4
20260506211445 81 30 0.0 2.6 0.00 0.00 0.00 63 1017.4
20260506210942 80 3 1.7 2.6 0.00 0.00 0.00 65 1017.5
20260506210438 80 80 2.6 5.2 0.00 0.00 0.00 66 1017.7
20260506205936 78 9 1.7 2.6 0.00 0.00 0.00 67 1017.9
20260506205432 79 92 3.5 5.2 0.00 0.00 0.00 66 1017.7
20260506204928 79 87 1.7 4.3 0.00 0.00 0.00 66 1017.8
20260506204426 80 71 1.7 3.5 0.00 0.00 0.00 65 1017.7
20260506203923 81 323 3.5 3.5 0.00 0.00 0.00 64 1017.8
20260506203420 81 29 1.7 3.5 0.00 0.00 0.00 65 1017.7
20260506202917 81 300 2.6 2.6 0.00 0.00 0.00 64 1017.5
20260506202414 82 94 1.7 3.5 0.00 0.00 0.00 61 1017.8
20260506201911 83 330 0.9 2.6 0.00 0.00 0.00 61 1017.8
20260506201409 83 37 0.9 2.6 0.00 0.00 0.00 61 1017.8
20260506200905 82 77 1.7 3.5 0.00 0.00 0.00 61 1017.7
20260506200401 81 316 2.6 7.8 0.00 0.00 0.00 63 1017.4
20260506195857 80 323 0.9 3.5 0.00 0.00 0.00 65 1017.4
20260506195355 80 299 3.5 5.2 0.00 0.00 0.00 66 1017.5
20260506194851 80 332 0.9 2.6 0.00 0.00 0.00 65 1017.8
20260506194348 79 142 2.6 3.5 0.00 0.00 0.00 67 1017.5
20260506193846 79 305 2.6 5.2 0.00 0.00 0.00 67 1017.3
20260506193342 80 68 0.9 3.5 0.00 0.00 0.00 66 1017.2
20260506192839 79 38 1.7 4.3 0.00 0.00 0.00 66 1017.1
20260506192335 79 64 0.9 7.0 0.00 0.00 0.00 65 1017.2
20260506191833 79 277 2.6 4.3 0.00 0.00 0.00 65 1017.3
20260506191329 80 331 2.6 10.4 0.00 0.00 0.00 64 1017.1
20260506190826 79 288 1.7 3.5 0.00 0.00 0.00 66 1017.1
20260506190322 79 297 1.7 5.2 0.00 0.00 0.00 66 1017.0
20260506185819 79 301 3.5 7.8 0.00 0.00 0.00 67 1017.0
20260506185316 78 339 0.0 6.1 0.00 0.00 0.00 67 1017.0
20260506184813 78 355 1.7 7.0 0.00 0.00 0.00 67 1017.0
20260506184311 79 339 3.5 6.1 0.00 0.00 0.00 65 1016.7
20260506183808 79 19 0.9 3.5 0.00 0.00 0.00 64 1017.0
20260506183303 78 329 3.5 3.5 0.00 0.00 0.00 65 1016.9
20260506182800 77 353 1.7 3.5 0.00 0.00 0.00 66 1017.1
20260506182257 77 281 1.7 2.6 0.00 0.00 0.00 65 1016.9
20260506181755 77 311 2.6 3.5 0.00 0.00 0.00 62 1017.0
20260506181253 77 8 0.0 3.5 0.00 0.00 0.00 60 1016.9
20260506180749 77 300 1.7 3.5 0.00 0.00 0.00 63 1016.9
20260506180245 75 42 0.9 1.7 0.00 0.00 0.00 66 1016.8
20260506175742 75 275 1.7 1.7 0.00 0.00 0.00 65 1016.9
20260506175239 76 297 1.7 1.7 0.00 0.00 0.00 66 1017.0
20260506174737 76 52 1.7 2.6 0.00 0.00 0.00 66 1016.8
20260506174233 75 72 1.7 2.6 0.00 0.00 0.00 64 1016.8
20260506173731 75 337 0.9 1.7 0.00 0.00 0.00 65 1016.8
20260506173227 74 7 0.9 2.6 0.00 0.00 0.00 66 1016.8
20260506172724 74 332 1.7 2.6 0.00 0.00 0.00 66 1016.9
20260506172221 74 340 1.7 2.6 0.00 0.00 0.00 66 1016.6
20260506171718 74 358 0.9 2.6 0.00 0.00 0.00 66 1016.6
20260506171216 73 346 1.7 1.7 0.00 0.00 0.00 68 1016.4
20260506170713 73 12 0.9 2.6 0.00 0.00 0.00 68 1016.6
20260506170210 73 6 0.9 1.7 0.00 0.00 0.00 69 1016.5
20260506165708 73 34 1.7 3.5 0.00 0.00 0.00 68 1016.3
20260506165204 73 42 2.6 3.5 0.00 0.00 0.00 70 1016.3
20260506164702 73 49 2.6 3.5 0.00 0.00 0.00 70 1016.3
20260506164159 73 53 3.5 3.5 0.00 0.00 0.00 70 1016.3
20260506163655 73 48 2.6 3.5 0.00 0.00 0.00 69 1016.2
20260506163151 73 69 2.6 3.5 0.00 0.00 0.00 66 1016.2
20260506162647 73 52 2.6 2.6 0.00 0.00 0.00 66 1016.1
20260506162144 73 54 2.6 3.5 0.00 0.00 0.00 67 1015.9
20260506161641 73 59 2.6 3.5 0.00 0.00 0.00 66 1015.8
20260506161138 72 58 2.6 3.5 0.00 0.00 0.00 65 1016.0
20260506160636 72 35 1.7 2.6 0.00 0.00 0.00 66 1015.8
20260506160132 72 40 1.7 3.5 0.00 0.00 0.00 68 1015.9
20260506155631 72 31 0.9 1.7 0.00 0.00 0.00 68 1015.8
20260506155127 72 75 1.7 2.6 0.00 0.00 0.00 66 1015.5